Date String (YYYY-MM-DD hh:mm:ss) UTC,Instrument flags,absolute air pressure of the measurement (hPa),sample flow rate (lpm),inlet stack bypass flow (lpm),air temperature of the measurement (°C),ambient temperature measured by the external sensor (°C),aerosol sample conditioner tube jacket temperature (°C),OPC LED temperature (°C),internal box temperature (°C),relative humidity of the measurement (%),span deviation,mass concentration of particles derived from Lorenz-Mie calculation of OPC scattering (μg/m³),mass concentration of particles derived from Lorenz-Mie calculation of OPC scattering (μg/m³),mass concentration of particles derived from Lorenz-Mie calculation of OPC scattering (μg/m³)
DateTimeUTC,F1_M11,P_M11,Q1_M11,Q2_M11,T1_M11,T2_M11,T3_M11,T4_M11,T5_M11,U1_M11,ZSPAN_M11,X0_M11,X2_M11,X1_M11
2024-04-07 09:00:00,SystemResetWarning,0813.1,5.00,000.00,018.7,017.9,000.0,027.4,020.3,010.1,0000.0,0009.33,0001.94,0000.70
2024-04-07 09:01:00,SystemResetWarning,0813.4,5.01,000.00,018.9,018.8,000.0,027.5,020.9,010.1,0000.0,0009.25,0001.94,0000.70
2024-04-07 09:02:00,SystemResetWarning,0813.4,5.00,000.00,019.1,019.5,000.0,027.5,021.4,010.0,0000.0,0009.78,0001.96,0000.70
2024-04-07 09:03:00,SystemResetWarning,0813.2,5.00,000.00,019.2,019.3,000.0,027.5,021.2,009.8,0000.0,0010.65,0001.97,0000.70
2024-04-07 09:04:00,SystemResetWarning,0813.2,4.99,000.00,019.1,019.0,000.0,027.5,020.9,009.8,0000.0,0011.03,0001.91,0000.69
2024-04-07 09:05:00,SystemResetWarning,0813.5,5.02,000.00,019.1,018.6,000.0,027.5,020.7,009.9,0000.0,0011.08,0001.92,0000.69
2024-04-07 09:06:00,SystemResetWarning,0813.5,5.00,000.00,019.0,018.4,000.0,027.5,020.6,010.0,0000.0,0009.99,0001.76,0000.66
2024-04-07 09:07:00,SystemResetWarning,0813.6,4.99,000.00,018.9,018.1,000.0,027.5,020.5,009.9,0000.0,0009.43,0001.56,0000.64
2024-04-07 09:08:00,SystemResetWarning,0813.7,4.99,000.00,018.9,017.9,000.0,027.5,020.4,010.0,0000.0,0009.32,0001.50,0000.63
2024-04-07 09:09:00,SystemResetWarning,0813.9,5.00,000.00,018.8,017.8,000.0,027.4,020.3,010.1,0000.0,0009.37,0001.46,0000.62
2024-04-07 09:10:00,SystemResetWarning,0813.7,5.01,000.00,018.7,017.6,000.0,027.4,020.2,010.1,0000.0,0010.36,0001.62,0000.63
2024-04-07 09:11:00,SystemResetWarning,0813.8,5.01,000.00,018.7,017.5,000.0,027.4,020.1,010.1,0000.0,0011.34,0001.68,0000.63
2024-04-07 09:12:00,SystemResetWarning,0813.8,5.00,000.00,018.6,017.4,000.0,027.4,020.0,010.4,0000.0,0011.45,0001.68,0000.63
2024-04-07 09:13:00,SystemResetWarning,0813.8,4.99,000.00,018.5,017.3,000.0,027.3,020.0,010.4,0000.0,0011.67,0001.73,0000.63
2024-04-07 09:14:00,SystemResetWarning,0813.6,4.99,000.00,018.5,017.2,000.0,027.3,020.0,010.3,0000.0,0011.43,0001.76,0000.63
2024-04-07 09:15:00,SystemResetWarning,0813.8,5.00,000.00,018.5,017.2,000.0,027.3,020.0,010.2,0000.0,0011.25,0001.77,0000.65
2024-04-07 09:16:00,SystemResetWarning,0813.6,5.01,000.00,018.5,017.7,000.0,027.4,020.3,010.2,0000.0,0011.36,0001.85,0000.66
2024-04-07 09:17:00,SystemResetWarning,0813.9,5.01,000.00,018.7,018.7,000.0,027.5,021.0,010.2,0000.0,0011.37,0001.81,0000.65
2024-04-07 09:18:00,SystemResetWarning,0813.9,4.99,000.00,019.0,019.4,000.0,027.5,021.4,010.0,0000.0,0011.52,0001.79,0000.65
2024-04-07 09:19:00,SystemResetWarning,0814.0,4.99,000.00,019.1,019.2,000.0,027.5,021.2,009.9,0000.0,0012.01,0001.85,0000.65
2024-04-07 09:20:00,SystemResetWarning,0813.8,5.00,000.00,019.1,018.9,000.0,027.4,020.9,009.9,0000.0,0011.54,0001.87,0000.66
2024-04-07 09:21:00,SystemResetWarning,0813.8,5.00,000.00,019.0,018.6,000.0,027.4,020.7,010.0,0000.0,0012.44,0002.24,0000.70
2024-04-07 09:22:00,SystemResetWarning,0813.9,5.00,000.00,018.9,018.3,000.0,027.4,020.6,010.0,0000.0,0012.13,0002.36,0000.71
2024-04-07 09:23:00,SystemResetWarning,0814.0,4.99,000.00,018.9,018.1,000.0,027.4,020.4,010.0,0000.0,0012.53,0002.33,0000.71
2024-04-07 09:24:00,SystemResetWarning,0814.1,5.00,000.00,018.8,017.8,000.0,027.4,020.3,010.0,0000.0,0012.11,0002.31,0000.72
2024-04-07 09:25:00,SystemResetWarning,0814.2,4.99,000.00,018.7,017.6,000.0,027.4,020.1,010.0,0000.0,0011.49,0002.30,0000.73
2024-04-07 09:26:00,SystemResetWarning,0814.2,4.99,000.00,018.6,017.4,000.0,027.3,020.1,010.0,0000.0,0011.20,0002.31,0000.73
2024-04-07 09:27:00,SystemResetWarning,0814.2,5.01,000.00,018.6,017.3,000.0,027.3,020.0,010.1,0000.0,0010.73,0002.19,0000.73
2024-04-07 09:28:00,SystemResetWarning,0814.4,5.01,000.00,018.5,017.2,000.0,027.3,020.0,010.1,0000.0,0010.10,0002.14,0000.73
2024-04-07 09:29:00,SystemResetWarning,0814.3,5.00,000.00,018.5,017.1,000.0,027.3,020.0,010.1,0000.0,0009.66,0002.14,0000.72
2024-04-07 09:30:00,SystemResetWarning,0814.3,4.99,000.00,018.4,017.0,000.0,027.3,020.0,010.1,0000.0,0009.67,0002.13,0000.73
2024-04-07 09:31:00,SystemResetWarning,0814.4,4.99,000.00,018.4,017.0,000.0,027.3,020.0,010.2,0000.0,0010.35,0002.08,0000.72
2024-04-07 09:32:00,SystemResetWarning,0814.4,5.01,000.00,018.4,017.2,000.0,027.3,020.1,010.2,0000.0,0008.57,0001.68,0000.69
2024-04-07 09:33:00,SystemResetWarning,0814.4,5.01,000.00,018.6,018.2,000.0,027.4,020.7,010.1,0000.0,0007.49,0001.38,0000.67
2024-04-07 09:34:00,SystemResetWarning,0814.4,4.99,000.00,018.9,019.1,000.0,027.4,021.2,010.0,0000.0,0006.42,0001.40,0000.68
2024-04-07 09:35:00,SystemResetWarning,0814.5,4.99,000.00,019.0,019.0,000.0,027.4,021.1,009.8,0000.0,0006.56,0001.41,0000.68
2024-04-07 09:36:00,SystemResetWarning,0814.5,5.00,000.00,018.9,018.8,000.0,027.4,020.8,009.8,0000.0,0006.73,0001.46,0000.68
2024-04-07 09:37:00,SystemResetWarning,0814.7,5.01,000.00,018.9,018.5,000.0,027.4,020.7,009.9,0000.0,0008.54,0001.51,0000.68
2024-04-07 09:38:00,SystemResetWarning,0814.5,4.99,000.00,018.9,018.3,000.0,027.3,020.5,009.9,0000.0,0008.90,0001.51,0000.69
2024-04-07 09:39:00,SystemResetWarning,0814.4,4.99,000.00,018.8,018.1,000.0,027.3,020.4,010.1,0000.0,0008.84,0001.52,0000.69
2024-04-07 09:40:00,SystemResetWarning,0814.3,5.00,000.00,018.8,017.9,000.0,027.3,020.3,010.0,0000.0,0008.67,0001.58,0000.70
2024-04-07 09:41:00,SystemResetWarning,0814.4,5.01,000.00,018.7,017.8,000.0,027.3,020.2,010.0,0000.0,0008.40,0001.57,0000.70
2024-04-07 09:42:00,SystemResetWarning,0814.4,5.01,000.00,018.6,017.7,000.0,027.3,020.1,010.1,0000.0,0008.51,0001.59,0000.70
2024-04-07 09:43:00,SystemResetWarning,0814.3,5.00,000.00,018.6,017.5,000.0,027.3,020.0,010.1,0000.0,0008.55,0001.67,0000.70
2024-04-07 09:44:00,SystemResetWarning,0814.1,5.00,000.00,018.5,017.4,000.0,027.3,020.0,010.1,0000.0,0008.53,0001.66,0000.70
2024-04-07 09:45:00,SystemResetWarning,0814.3,5.00,000.00,018.5,017.3,000.0,027.3,020.0,010.2,0000.0,0008.49,0001.63,0000.71
2024-04-07 09:46:00,SystemResetWarning,0814.4,5.00,000.00,018.4,017.2,000.0,027.3,020.0,010.2,0000.0,0008.63,0001.60,0000.71
2024-04-07 09:47:00,SystemResetWarning,0814.3,4.99,000.00,018.4,017.2,000.0,027.2,020.0,010.2,0000.0,0008.97,0001.53,0000.69
2024-04-07 09:48:00,SystemResetWarning,0814.2,4.99,000.00,018.4,017.3,000.0,027.3,020.1,010.2,0000.0,0008.17,0001.50,0000.69
2024-04-07 09:49:00,SystemResetWarning,0814.5,5.01,000.00,018.6,018.2,000.0,027.3,020.6,010.1,0000.0,0008.14,0001.51,0000.69
2024-04-07 09:50:00,SystemResetWarning,0814.8,4.99,000.00,018.8,019.1,000.0,027.4,021.1,009.9,0000.0,0008.58,0001.51,0000.68
2024-04-07 09:51:00,SystemResetWarning,0814.7,4.99,000.00,018.9,018.9,000.0,027.3,021.0,009.6,0000.0,0008.85,0001.48,0000.70
2024-04-07 09:52:00,SystemResetWarning,0814.5,5.00,000.00,018.9,018.6,000.0,027.3,020.7,009.6,0000.0,0009.57,0001.46,0000.71
2024-04-07 09:53:00,SystemResetWarning,0814.4,5.00,000.00,018.8,018.2,000.0,027.3,020.4,009.6,0000.0,0009.32,0001.47,0000.72
2024-04-07 09:54:00,SystemResetWarning,0814.7,5.01,000.00,018.7,017.8,000.0,027.3,020.2,009.7,0000.0,0009.38,0001.40,0000.72
2024-04-07 09:55:00,SystemResetWarning,0814.7,5.01,000.00,018.6,017.6,000.0,027.3,020.1,009.8,0000.0,0010.19,0001.43,0000.72
2024-04-07 09:56:00,SystemResetWarning,0814.7,5.00,000.00,018.5,017.4,000.0,027.2,020.0,009.8,0000.0,0010.24,0001.44,0000.70
2024-04-07 09:57:00,SystemResetWarning,0814.7,5.00,000.00,018.5,017.3,000.0,027.2,020.0,009.9,0000.0,0010.09,0001.49,0000.70
2024-04-07 09:58:00,SystemResetWarning,0814.7,5.00,000.00,018.5,017.2,000.0,027.2,020.0,009.9,0000.0,0009.78,0001.54,0000.70
2024-04-07 09:59:00,SystemResetWarning,0814.8,5.00,000.00,018.4,017.1,000.0,027.2,020.0,009.9,0000.0,0009.75,0001.58,0000.70
